Weather History for Louisburg, NC

Change the Weather History Date:

Thursday, December 20, 2012

  Actual Average (KRDU) Record (KRDU)
Temperature  
Mean Temperature 45 °F 42 °F  
Max Temperature 53 °F 52 °F 78 °F (1931)
Min Temperature 37 °F 32 °F 12 °F (1963)
Degree Days  
Heating Degree Days 20 23  
Month to date heating degree days 409  
Since 1 July heating degree days 990  
Cooling Degree Days 0 0  
Month to date cooling degree days 0  
Year to date cooling degree days 1728  
Moisture  
Dew Point 43 °F    
Average Humidity 82    
Maximum Humidity 100    
Minimum Humidity 62    
Precipitation  
Precipitation 0.23 in 0.10 in 1.44 in (1946)
Month to date precipitation 1.97  
Year to date precipitation 42.24  
Snow  
Snow 0.00 in 0.00 in 0.10 in (1942)
Month to date snowfall 0.2  
Since 1 July snowfall 0.3  
Snow Depth -    
Sea Level Pressure  
Sea Level Pressure 29.96 in    
Wind  
Wind Speed 4 mph (ESE)    
Max Wind Speed 24 mph    
Max Gust Speed 33 mph    
Visibility 9 miles    
Events Rain    
T = Trace of Precipitation, MM = Missing Value Source: NWS Daily Summary

Daily Weather History Graph

Daily Weather History Graph

Search for Another Location

Airport:

Trip Planner

Search our weather history database for the weather conditions in past years. The results will help you decide how hot, cold, wet, or windy it might be!

Date:

Astronomy

Dec. 20, 2012 Rise Set
Actual Time 7:19 AM EST 5:02 PM EST
Civil Twilight 6:51 AM EST 5:31 PM EST
Nautical Twilight 6:19 AM EST 6:03 PM EST
Astronomical Twilight 5:47 AM EST 6:34 PM EST
Moon 12:10 PM EST 12:14 AM EST
Length of Visible Light 10h 39m
Length of Day
9h 42m
First Quarter, 55% of the Moon is Illuminated
Dec 20
First Quarter
Dec 28
Full
Jan 4
Last Quarter
Jan 11
New
Jan 18
First Quarter

Hourly Weather History & Observations

Time (EST) Temp. Windchill Dew Point Humidity Pressure Visibility Wind Dir Wind Speed Gust Speed Precip Events Conditions
12:15 AM 41.0 °F 37.1 °F 37.4 °F 87% 30.16 in 10.0 mi NE 5.8 mph - N/A   Clear
12:35 AM 42.8 °F 39.3 °F 37.4 °F 81% 30.16 in 10.0 mi ENE 5.8 mph - N/A   Clear
12:55 AM 42.8 °F 40.1 °F 37.4 °F 81% 30.16 in 10.0 mi ENE 4.6 mph - N/A   Clear
1:15 AM 42.8 °F 40.1 °F 37.4 °F 81% 30.15 in 10.0 mi ENE 4.6 mph - N/A   Clear
1:55 AM 42.8 °F - 37.4 °F 81% 30.17 in 10.0 mi Calm Calm - N/A   Clear
2:15 AM 37.4 °F - 35.6 °F 93% 30.18 in 10.0 mi Calm Calm - N/A   Clear
2:35 AM - - - N/A% 30.18 in 10.0 mi Calm Calm - N/A   Clear
2:55 AM - - - N/A% 30.18 in 10.0 mi Calm Calm - N/A   Clear
3:15 AM 37.4 °F - 37.4 °F 100% 30.18 in 7.0 mi Calm Calm - N/A   Clear
3:35 AM - - - N/A% 30.18 in 10.0 mi Calm Calm - N/A   Clear
3:55 AM - - - N/A% 30.17 in 10.0 mi Calm Calm - N/A   Clear
4:15 AM - - - N/A% 30.17 in 10.0 mi Calm Calm - N/A   Clear
4:35 AM - - - N/A% 30.18 in 7.0 mi Calm Calm - N/A   Clear
4:55 AM - - - N/A% 30.18 in 7.0 mi Calm Calm - N/A   Clear
5:15 AM - - - N/A% 30.18 in 10.0 mi Calm Calm - N/A   Clear
5:35 AM - - - N/A% 30.18 in 10.0 mi Calm Calm - N/A   Clear
5:55 AM - - - N/A% 30.19 in 7.0 mi Calm Calm - N/A   Clear
6:15 AM - - - N/A% 30.18 in 7.0 mi Calm Calm - N/A   Clear
6:35 AM - - - N/A% 30.18 in 7.0 mi Calm Calm - N/A   Clear
6:55 AM - - - N/A% 30.18 in 7.0 mi Calm Calm - N/A   Clear
7:15 AM - - - N/A% 30.18 in 10.0 mi Calm Calm - N/A   Clear
7:35 AM - - - N/A% 30.18 in 7.0 mi Calm Calm - N/A   Clear
7:55 AM - - - N/A% 30.17 in 7.0 mi East 3.5 mph - N/A   Clear
8:15 AM - - - N/A% 30.16 in 10.0 mi ESE 3.5 mph - N/A   Clear
8:35 AM 41.0 °F - 41.0 °F 100% 30.16 in 10.0 mi Calm Calm - N/A   Clear
8:55 AM 41.0 °F - 41.0 °F 100% 30.15 in 10.0 mi Calm Calm - N/A   Clear
9:15 AM 42.8 °F 40.1 °F 42.8 °F 100% 30.13 in 10.0 mi ESE 4.6 mph - N/A   Clear
9:35 AM 42.8 °F 40.1 °F 42.8 °F 100% 30.13 in 10.0 mi ESE 4.6 mph - N/A   Clear
9:55 AM 44.6 °F 42.2 °F 44.6 °F 100% 30.13 in 10.0 mi East 4.6 mph - N/A   Clear
10:15 AM 44.6 °F 41.4 °F 44.6 °F 100% 30.11 in 10.0 mi ESE 5.8 mph - N/A   Clear
10:35 AM 46.4 °F 44.3 °F 41.0 °F 81% 30.10 in 10.0 mi SE 4.6 mph - N/A   Clear
10:55 AM 50.0 °F - 41.0 °F 71% 30.09 in 10.0 mi SE 5.8 mph - N/A   Clear
11:15 AM 48.2 °F - 39.2 °F 71% 30.08 in 10.0 mi ESE 9.2 mph - N/A   Clear
11:35 AM 50.0 °F - 41.0 °F 71% 30.08 in 10.0 mi SE 6.9 mph - N/A   Clear
11:55 AM 50.0 °F - 41.0 °F 71% 30.07 in 10.0 mi ESE 3.5 mph - N/A   Clear
12:15 PM 53.6 °F - 42.8 °F 67% 30.04 in 10.0 mi ESE 5.8 mph - N/A   Clear
12:35 PM 53.6 °F - 41.0 °F 62% 30.03 in 10.0 mi SE 4.6 mph - N/A   Clear
12:55 PM 53.6 °F - 42.8 °F 67% 30.01 in 10.0 mi ESE 6.9 mph - N/A   Clear
1:15 PM 53.6 °F - 42.8 °F 67% 29.99 in 10.0 mi ESE 4.6 mph - N/A   Clear
1:35 PM 53.6 °F - 42.8 °F 67% 29.99 in 10.0 mi Calm Calm - N/A   Clear
1:55 PM 53.6 °F - 42.8 °F 67% 29.98 in 10.0 mi SE 4.6 mph - N/A   Clear
2:15 PM 53.6 °F - 44.6 °F 72% 29.96 in 10.0 mi East 3.5 mph - N/A   Clear
2:35 PM 53.6 °F - 44.6 °F 72% 29.94 in 10.0 mi ESE 3.5 mph - N/A   Clear
3:15 PM 53.6 °F - 44.6 °F 72% 29.94 in 10.0 mi Calm Calm - N/A   Scattered Clouds
3:35 PM 53.6 °F - 44.6 °F 72% 29.92 in 10.0 mi ENE 5.8 mph - N/A   Mostly Cloudy
3:55 PM 53.6 °F - 44.6 °F 72% 29.90 in 10.0 mi East 5.8 mph - N/A   Overcast
4:15 PM 53.6 °F - 44.6 °F 72% 29.89 in 10.0 mi East 4.6 mph - N/A   Overcast
4:35 PM 53.6 °F - 46.4 °F 77% 29.87 in 10.0 mi Calm Calm - N/A   Overcast
4:55 PM 51.8 °F - 46.4 °F 82% 29.84 in 10.0 mi East 4.6 mph - N/A   Overcast
5:15 PM 51.8 °F - 46.4 °F 82% 29.83 in 10.0 mi East 4.6 mph - N/A   Overcast
5:35 PM 51.8 °F - 46.4 °F 82% 29.81 in 10.0 mi East 4.6 mph - N/A   Light Drizzle
5:55 PM 51.8 °F - 48.2 °F 88% 29.79 in 10.0 mi East 8.1 mph - N/A   Light Drizzle
6:15 PM 53.6 °F - 48.2 °F 82% 29.79 in 10.0 mi ESE 4.6 mph - N/A   Overcast
6:35 PM 51.8 °F - 50.0 °F 94% 29.78 in 10.0 mi ESE 4.6 mph - N/A   Light Drizzle
6:55 PM 53.6 °F - 51.8 °F 94% 29.76 in 10.0 mi ESE 4.6 mph - N/A   Overcast
7:15 PM 53.6 °F - 51.8 °F 94% 29.75 in 10.0 mi ESE 6.9 mph - N/A Rain Rain
7:35 PM 53.6 °F - 53.6 °F 100% 29.72 in 7.0 mi ESE 6.9 mph - N/A   Drizzle
7:55 PM - - - N/A% 29.68 in 7.0 mi ESE 8.1 mph 17.3 mph 0.01 in Rain Light Rain
8:15 PM - - - N/A% 29.65 in 7.0 mi SSE 13.8 mph 19.6 mph 0.02 in Rain Light Rain
8:35 PM - - - N/A% 29.62 in 7.0 mi SSE 11.5 mph 20.7 mph 0.03 in Rain Light Rain
8:55 PM - - - N/A% 29.59 in 10.0 mi SSE 13.8 mph 20.7 mph 0.04 in Rain Light Rain
9:15 PM - - - N/A% 29.56 in 7.0 mi SSE 11.5 mph 21.9 mph 0.02 in Rain Light Rain
9:35 PM - - - N/A% 29.56 in 10.0 mi SSE 18.4 mph 26.5 mph 0.02 in Rain Rain
9:55 PM - - - N/A% 29.52 in 7.0 mi SSE 18.4 mph 31.1 mph 0.06 in Rain Light Rain
10:15 PM - - - N/A% 29.52 in 7.0 mi South 16.1 mph 26.5 mph 0.02 in Rain Light Rain
10:35 PM - - - N/A% 29.51 in 5.0 mi South 19.6 mph 27.6 mph 0.04 in Rain Rain
10:55 PM - - - N/A% 29.47 in 5.0 mi South 12.7 mph 24.2 mph 0.11 in Rain Rain
11:15 PM - - - N/A% 29.46 in 7.0 mi South 24.2 mph 29.9 mph 0.01 in Rain Light Rain
11:35 PM - - - N/A% 29.45 in 10.0 mi South 18.4 mph 33.4 mph 0.01 in   Overcast
11:55 PM - - - N/A% 29.44 in 7.0 mi SSW 11.5 mph 32.2 mph 0.01 in Rain Light Rain